[[{"header":{"parameterUnit":"m.s-1","parameterCategory":2,"la1":30.2992,"la2":30.254,"lo1":-89.0895,"lo2":-89.0443,"dy":0.0025,"dx":0.0025,"nx":19,"ny":19,"refTime":"2026-03-24T21:00:00:Z","depth":"0","parameterNumber":2,"parameterNumberName":"U-component_of_CURRENTS"},"data":[0,0,0,0.0631,0.0634,0.0789,0.079,0.1021,0.1023,0,0,0,0,0,0,0,0,0,0,0,0.0579,0.058,0.063,0.0634,0.0789,0.079,0.102,0.1023,0,0,0,0,0,0,0,0,0,0,0,0.0578,0.0579,0.058,0.0634,0.0789,0.079,0.102,0.0898,0,0,0,0,0,0,0,0,0,0,0.0744,0.0682,0.0579,0.058,0.0635,0.0788,0.079,0.0892,0.0905,0.0956,0,0.0975,0,0.1,0.1038,0.1038,0,0,0,0.0647,0.067,0.0715,0.0581,0.0636,0.0788,0.0723,0.0899,0.0915,0.0974,0.0979,0.0987,0.1004,0.1039,0.104,0.1306,0.1307,0,0,0.0638,0.0609,0.0704,0.0725,0.0673,0.0717,0.0727,0.0908,0.0922,0.0979,0.0993,0.1008,0.1041,0.1042,0.1305,0.1307,0,0,0,0.0605,0.0603,0.0643,0.0715,0.0739,0.0722,0.0733,0.0914,0.0928,0.0995,0.101,0.1042,0.1045,0.1304,0.1306,0.1344,0,0,0,0.06,0.0583,0.0639,0.0624,0.0735,0.0822,0.0734,0.0916,0.0937,0.1009,0.1042,0.1047,0.1302,0.1305,0.134,0.1394,0,0,0,0.0572,0.058,0.0597,0.0621,0.0683,0.082,0.0845,0.0921,0.0946,0.1039,0.1047,0.1301,0.1304,0.1337,0.1387,0.1618,0,0,0,0.0539,0.0584,0.0596,0.0657,0.0681,0.0802,0.0844,0.0944,0.1022,0.1043,0.1303,0.1305,0.1335,0.1383,0.1611,0.1704,0.1744,0,0,0.058,0.0588,0.0627,0.0642,0.075,0.0782,0.093,0.1041,0.1089,0.1244,0.1251,0.1341,0.1387,0.1616,0.1872,0.1908,0,0,0,0.0631,0.0663,0.0698,0.0762,0.0834,0.0943,0.1031,0.1112,0.1269,0.1148,0.1391,0.142,0.1564,0.1605,0.1634,0.1726,0.1319,0.1319,0.1318,0.0658,0.0705,0.0783,0.0857,0.0931,0.1074,0.1198,0.1332,0.1331,0.142,0.1486,0.1735,0.1775,0.1799,0.189,0.1507,0.1507,0.1507,0.1507,0.0746,0.0808,0.0854,0.0941,0.1037,0.1158,0.1382,0.1441,0.1703,0.1602,0.174,0.1683,0.1834,0.1919,0.151,0.151,0.1509,0.1509,0.1509,0.0793,0.083,0.0859,0.0968,0.1103,0.1236,0.1508,0.1642,0.1784,0.1902,0.206,0.206,0.2118,0.2,0.2001,0.2003,0.2004,0.2005,0.2005,0.0832,0.0868,0.0948,0.1019,0.1123,0.131,0.1606,0.1822,0.2105,0.2176,0.2178,0.2237,0.1889,0.1849,0.2025,0.2021,0.2019,0.2017,0.2016,0.0982,0.0935,0.1086,0.1172,0.1378,0.1556,0.1781,0.2182,0.2425,0.2596,0.2641,0.237,0.2408,0.2383,0.2359,0.2658,0.2658,0.2658,0.2658,0.1073,0.1052,0.1287,0.1462,0.1628,0.1738,0.2057,0.2325,0.2719,0.2902,0.2957,0.2811,0.2781,0.2831,0.2796,0.2776,0.3175,0.3175,0.3176,0.122,0.1267,0.1477,0.1581,0.1766,0.191,0.2091,0.2291,0.2867,0.3202,0.3081,0.3059,0.2836,0.2781,0.2835,0.2779,0.2735,0,0]},{"header":{"parameterUnit":"m.s-1","parameterCategory":2,"la1":30.2992,"la2":30.254,"lo1":-89.0895,"lo2":-89.0443,"dy":0.0025,"dx":0.0025,"nx":19,"ny":19,"refTime":"2026-03-24T21:00:00:Z","depth":"0","parameterNumber":3,"parameterNumberName":"V-component_of_CURRENTS"},"data":[0,0,0,0.0018,0.0017,-0.0023,-0.0023,-0.0062,-0.0062,0,0,0,0,0,0,0,0,0,0,0,0.0027,0.0026,0.0018,0.0017,-0.0023,-0.0023,-0.0062,-0.0062,0,0,0,0,0,0,0,0,0,0,0,0.0027,0.0026,0.0026,0.0017,-0.0023,-0.0023,-0.0062,-0.0036,0,0,0,0,0,0,0,0,0,0,0.0001,-0.0003,0.0026,0.0026,0.0017,-0.0023,-0.0023,-0.0035,-0.0037,-0.0039,0,-0.0048,0,-0.0052,-0.0064,-0.0064,0,0,0,0.0013,-0.0001,0.0002,0.0026,0.0016,-0.0023,-0.0006,-0.0036,-0.0039,-0.0043,-0.0049,-0.005,-0.0053,-0.0064,-0.0065,0.0014,0.0015,0,0,0.0016,0.0007,0.0004,-0.0,0.0002,-0.0005,-0.0007,-0.0038,-0.0051,-0.0049,-0.0051,-0.0053,-0.0065,-0.0065,0.0013,0.0015,0,0,0,0.0024,0.0008,0.0011,0.0001,-0.0005,-0.0006,-0.0009,-0.005,-0.0045,-0.0052,-0.0054,-0.0065,-0.0065,0.0012,0.0014,0.0118,0,0,0,0.0026,0.0014,0.0012,0.0005,-0.0004,-0.0032,-0.0019,-0.0043,-0.0047,-0.0054,-0.0065,-0.0065,0.0011,0.0013,0.0113,0.0242,0,0,0,0.0029,0.0014,0.0012,0.0005,-0.0009,-0.0032,-0.003,-0.0044,-0.0048,-0.0064,-0.0065,0.001,0.0013,0.0108,0.0231,0.0494,0,0,0,0.002,-0.0018,0.0011,-0.0043,-0.0008,-0.0052,-0.003,-0.0063,-0.0082,-0.0065,0.0011,0.0014,0.0107,0.0224,0.0484,0.0655,0.0714,0,0,-0.0035,-0.0025,-0.0059,-0.0034,-0.0091,-0.0046,-0.0024,-0.0028,-0.0029,0.0018,0.0019,0.0115,0.023,0.0492,0.0803,0.0859,0,0,0,-0.0082,-0.0103,-0.012,-0.0144,-0.0151,-0.0026,-0.0061,0.0016,0.0109,-0.0025,0.0138,0.021,0.0372,0.0453,0.0497,0.032,0.0025,0.0025,0.0025,-0.0147,-0.0156,-0.0189,-0.0176,-0.0153,-0.0033,0.0101,0.022,0.0124,0.0227,0.0308,0.0605,0.0686,0.0723,0.0534,0.0279,0.028,0.028,0.028,-0.0217,-0.0204,-0.0173,-0.0196,-0.004,0.0036,0.0308,0.0365,0.0619,0.0468,0.0619,0.0574,0.0778,0.0559,0.0288,0.0286,0.0285,0.0285,0.0284,-0.026,-0.0222,-0.0249,-0.0152,0.0042,0.0226,0.0645,0.0754,0.0798,0.0928,0.1102,0.11,0.0912,0.1013,0.1015,0.1017,0.1018,0.1019,0.102,-0.0224,-0.0237,-0.0107,-0.003,0.0162,0.0496,0.0891,0.1128,0.1356,0.1328,0.1329,0.1012,0.0833,0.0808,0.1047,0.1042,0.1039,0.1036,0.1034,-0.0076,-0.0072,0.0132,0.0303,0.0713,0.1101,0.1353,0.1803,0.1981,0.2114,0.1596,0.1573,0.1606,0.1568,0.1563,0.1986,0.1986,0.1986,0.1986,0.0138,0.0107,0.053,0.0877,0.1247,0.1483,0.2042,0.2269,0.2193,0.2053,0.1881,0.1638,0.1607,0.1621,0.1583,0.1569,0.1984,0.1983,0.1982,0.0457,0.0503,0.091,0.1121,0.1532,0.1887,0.2311,0.2517,0.2255,0.1951,0.161,0.161,0.1201,0.1167,0.113,0.109,0.1045,0,0]}],[{"header":{"parameterUnit":"m.s-1","parameterCategory":2,"la1":30.2992,"la2":30.254,"lo1":-89.0895,"lo2":-89.0443,"dy":0.0025,"dx":0.0025,"nx":19,"ny":19,"refTime":"2026-03-24T21:00:00:Z","depth":"2","parameterNumber":2,"parameterNumberName":"U-component_of_CURRENTS"},"data":[0,0,0,0.0483,0.0485,0.0555,0.0555,0.0543,0.0543,0,0,0,0,0,0,0,0,0,0,0,0.0463,0.0464,0.0483,0.0485,0.0555,0.0555,0.0543,0.0543,0,0,0,0,0,0,0,0,0,0,0,0.0463,0.0464,0.0465,0.0485,0.0555,0.0555,0.0543,0.0514,0,0,0,0,0,0,0,0,0,0,0.0458,0.0458,0.0464,0.0465,0.0486,0.0555,0.0555,0.0513,0.0515,0.0485,0,0.0511,0,0.0526,0.054,0.054,0,0,0,0.0477,0.0457,0.0475,0.0465,0.0487,0.0555,0.0521,0.0515,0.0518,0.0487,0.0511,0.0511,0.0526,0.054,0.054,0.0651,0.0653,0,0,0.0473,0.047,0.0474,0.0477,0.0522,0.0519,0.0523,0.0518,0.0525,0.0511,0.0511,0.0525,0.054,0.054,0.065,0.0652,0,0,0,0.0467,0.0468,0.0488,0.0477,0.0498,0.0521,0.0526,0.0525,0.0533,0.0511,0.0525,0.054,0.0539,0.0648,0.0651,0.0736,0,0,0,0.0465,0.0465,0.0487,0.0485,0.0499,0.0527,0.0534,0.0534,0.0534,0.0525,0.054,0.0539,0.0647,0.0649,0.073,0.075,0,0,0,0.0457,0.0464,0.0478,0.0485,0.0519,0.0528,0.0535,0.0534,0.0542,0.054,0.0539,0.0645,0.0649,0.0725,0.0742,0.088,0,0,0,0.0442,0.0482,0.0478,0.0525,0.0518,0.054,0.0536,0.0549,0.055,0.0539,0.0647,0.065,0.0723,0.0738,0.0874,0.076,0.0779,0,0,0.0483,0.0487,0.0514,0.0512,0.0525,0.0529,0.0573,0.0575,0.0602,0.0635,0.0639,0.0732,0.0742,0.0879,0.0964,0.0977,0,0,0,0.052,0.0522,0.0531,0.0541,0.0555,0.0587,0.058,0.0632,0.0738,0.0624,0.0781,0.0785,0.0868,0.0788,0.08,0.0667,0.0667,0.0666,0.0666,0.0526,0.0533,0.0549,0.0551,0.0576,0.0618,0.0697,0.0779,0.0758,0.0864,0.0891,0.1099,0.1015,0.1022,0.0942,0.0942,0.0943,0.0943,0.0943,0.0532,0.0539,0.055,0.0574,0.0615,0.0667,0.0814,0.0875,0.1071,0.1019,0.1099,0.0925,0.1039,0.0951,0.0949,0.0948,0.0948,0.0947,0.0947,0.05,0.0511,0.053,0.0586,0.0671,0.0758,0.0947,0.1064,0.1166,0.126,0.122,0.1215,0.1142,0.1329,0.133,0.1331,0.1331,0.1332,0.1332,0.0479,0.0493,0.0564,0.0621,0.0717,0.0861,0.1062,0.1179,0.1289,0.1312,0.1312,0.123,0.1217,0.1167,0.1344,0.1342,0.134,0.1339,0.1338,0.0503,0.0527,0.0625,0.0714,0.0883,0.0946,0.1113,0.1243,0.1391,0.1418,0.136,0.1356,0.1324,0.1311,0.1265,0.1457,0.1457,0.1457,0.1457,0.056,0.0558,0.0719,0.0851,0.0967,0.1006,0.1074,0.1175,0.1299,0.1318,0.1324,0.1182,0.1179,0.1132,0.1123,0.1069,0.1211,0.1211,0.1211,0.0655,0.0675,0.0797,0.087,0.0999,0.0988,0.0959,0.1022,0.1117,0.1203,0.13,0.1437,0.1235,0.1229,0.1155,0.1142,0.1055,0,0]},{"header":{"parameterUnit":"m.s-1","parameterCategory":2,"la1":30.2992,"la2":30.254,"lo1":-89.0895,"lo2":-89.0443,"dy":0.0025,"dx":0.0025,"nx":19,"ny":19,"refTime":"2026-03-24T21:00:00:Z","depth":"2","parameterNumber":3,"parameterNumberName":"V-component_of_CURRENTS"},"data":[0,0,0,-0.0377,-0.0376,-0.0388,-0.0388,-0.0511,-0.0512,0,0,0,0,0,0,0,0,0,0,0,-0.0365,-0.0365,-0.0377,-0.0376,-0.0388,-0.0388,-0.0511,-0.0512,0,0,0,0,0,0,0,0,0,0,0,-0.0366,-0.0365,-0.0364,-0.0376,-0.0388,-0.0388,-0.0511,-0.048,0,0,0,0,0,0,0,0,0,0,-0.0457,-0.0415,-0.0365,-0.0364,-0.0376,-0.0388,-0.0388,-0.0477,-0.0482,-0.053,0,-0.0508,0,-0.051,-0.0521,-0.0522,0,0,0,-0.0396,-0.0411,-0.042,-0.0364,-0.0376,-0.0388,-0.0388,-0.0479,-0.0484,-0.0537,-0.051,-0.0514,-0.0512,-0.0522,-0.0523,-0.0571,-0.0571,0,0,-0.0395,-0.0373,-0.0416,-0.0422,-0.0351,-0.0388,-0.0388,-0.0481,-0.0474,-0.051,-0.0517,-0.0514,-0.0523,-0.0524,-0.0572,-0.0571,0,0,0,-0.038,-0.0372,-0.0377,-0.0418,-0.0409,-0.0388,-0.0388,-0.047,-0.0472,-0.0518,-0.0515,-0.0524,-0.0525,-0.0572,-0.0572,-0.0572,0,0,0,-0.0381,-0.0362,-0.0376,-0.0363,-0.0406,-0.0423,-0.0375,-0.0465,-0.0475,-0.0515,-0.0524,-0.0527,-0.0573,-0.0572,-0.0573,-0.054,0,0,0,-0.037,-0.0361,-0.0354,-0.0362,-0.0359,-0.0421,-0.0428,-0.0467,-0.0474,-0.0522,-0.0527,-0.0573,-0.0572,-0.0574,-0.0542,-0.0464,0,0,0,-0.036,-0.0355,-0.0353,-0.0356,-0.0358,-0.0406,-0.0427,-0.0478,-0.0519,-0.0524,-0.0573,-0.0572,-0.0575,-0.0544,-0.0467,-0.0478,-0.0467,0,0,-0.0359,-0.0353,-0.0363,-0.0362,-0.0415,-0.0408,-0.0458,-0.0519,-0.0514,-0.0555,-0.0556,-0.0573,-0.0543,-0.0465,-0.0416,-0.0407,0,0,0,-0.0369,-0.0386,-0.0399,-0.0422,-0.0442,-0.0466,-0.0512,-0.0507,-0.0515,-0.0526,-0.0551,-0.053,-0.0481,-0.0493,-0.0486,-0.0567,-0.0567,-0.0567,-0.0567,-0.0379,-0.0407,-0.0444,-0.0484,-0.0498,-0.0526,-0.0516,-0.0508,-0.0539,-0.0513,-0.0516,-0.0433,-0.0448,-0.0442,-0.0516,-0.0516,-0.0516,-0.0516,-0.0516,-0.043,-0.0467,-0.0485,-0.0538,-0.0548,-0.0574,-0.0532,-0.052,-0.0446,-0.0483,-0.0437,-0.0476,-0.0434,-0.0516,-0.0516,-0.0516,-0.0516,-0.0516,-0.0516,-0.0486,-0.05,-0.0536,-0.0562,-0.0565,-0.0552,-0.0454,-0.0436,-0.0411,-0.0369,-0.0347,-0.0348,-0.0408,-0.0346,-0.0346,-0.0345,-0.0345,-0.0344,-0.0344,-0.0513,-0.0548,-0.0536,-0.0557,-0.051,-0.0444,-0.0374,-0.0325,-0.0309,-0.0307,-0.0307,-0.0374,-0.0379,-0.0395,-0.0337,-0.0338,-0.0339,-0.034,-0.034,-0.0551,-0.0543,-0.0518,-0.0475,-0.0346,-0.0234,-0.0201,-0.0163,-0.0139,-0.0136,-0.0257,-0.0262,-0.0243,-0.025,-0.0261,-0.0171,-0.0171,-0.0171,-0.0171,-0.0533,-0.054,-0.0459,-0.0344,-0.0214,-0.012,0.003,0.0041,-0.0042,-0.0096,-0.0099,-0.0169,-0.0179,-0.016,-0.0169,-0.018,-0.0068,-0.0068,-0.0067,-0.049,-0.0489,-0.0411,-0.0326,-0.015,-0.0014,0.014,0.0231,0.0074,-0.006,-0.0047,-0.0171,-0.0289,-0.0297,-0.0283,-0.0292,-0.0315,0,0]}],[{"header":{"parameterUnit":"m.s-1","parameterCategory":2,"la1":30.2992,"la2":30.254,"lo1":-89.0895,"lo2":-89.0443,"dy":0.0025,"dx":0.0025,"nx":19,"ny":19,"refTime":"2026-03-24T21:00:00:Z","depth":"4","parameterNumber":2,"parameterNumberName":"U-component_of_CURRENTS"},"data":[0,0,0,0.0224,0.0223,0.0188,0.0188,0.0135,0.0134,0,0,0,0,0,0,0,0,0,0,0,0.0232,0.0232,0.0224,0.0223,0.0188,0.0188,0.0135,0.0134,0,0,0,0,0,0,0,0,0,0,0,0.0232,0.0232,0.0232,0.0223,0.0188,0.0188,0.0135,0.0161,0,0,0,0,0,0,0,0,0,0,0.0196,0.0205,0.0232,0.0232,0.0223,0.0188,0.0188,0.0163,0.016,0.0151,0,0.0148,0,0.0145,0.0131,0.0131,0,0,0,0.0215,0.0207,0.0203,0.0232,0.0223,0.0188,0.0202,0.0161,0.0158,0.0147,0.0147,0.0145,0.0144,0.0131,0.0131,0.0144,0.0144,0,0,0.0217,0.0219,0.0205,0.0201,0.0217,0.0203,0.0201,0.0159,0.0154,0.0147,0.0144,0.0143,0.0131,0.013,0.0143,0.0144,0,0,0,0.0228,0.0221,0.0217,0.0203,0.02,0.0202,0.02,0.0155,0.0156,0.0144,0.0143,0.013,0.013,0.0143,0.0144,0.0223,0,0,0,0.0229,0.0228,0.0218,0.0218,0.0201,0.0178,0.0197,0.0158,0.0154,0.0143,0.013,0.0129,0.0142,0.0143,0.0219,0.0257,0,0,0,0.0233,0.0228,0.0226,0.0219,0.0208,0.0179,0.0176,0.0157,0.0153,0.0131,0.0129,0.0142,0.0143,0.0216,0.0252,0.0313,0,0,0,0.0234,0.0221,0.0226,0.0211,0.0209,0.0193,0.0176,0.0159,0.0141,0.013,0.0142,0.0144,0.0215,0.0249,0.0309,0.0235,0,0,0,0.0217,0.0219,0.021,0.0214,0.0201,0.0197,0.0209,0.0181,0.0159,0.0153,0.0153,0.022,0.0252,0.0312,0.0302,0,0,0,0,0.0204,0.0199,0.0193,0.019,0.0185,0.0221,0.0194,0.0207,0.0222,0.0156,0.0221,0.0239,0.0274,0.022,0.0149,0.0149,0.0149,0.0149,0.0149,0.0177,0.0183,0.0178,0.0191,0.0204,0.0233,0.0269,0.0288,0.0247,0.0281,0.0304,0.0404,0.0349,0.0301,0.0302,0.0302,0.0302,0.0303,0.0303,0.0152,0.0149,0.019,0.0198,0.0256,0.029,0.0358,0.0369,0.0433,0.0381,0.0412,0.0307,0.0311,0.0309,0.0308,0.0307,0.0306,0.0306,0.0305,0.0118,0.0125,0.0149,0.0203,0.0285,0.0353,0.045,0.0489,0.0509,0.055,0.0489,0.0465,0.0459,0.0566,0.0566,0.0567,0.0567,0.0567,0.0568,0.008,0.0103,0.0143,0.0216,0.0274,0.038,0.0508,0.0565,0.0606,0.0578,0.0576,0.0493,0.0484,0.0474,0.0575,0.0573,0.0573,0.0572,0.0571,0.0031,0.0068,0.0118,0.0172,0.0303,0.037,0.0503,0.0613,0.0679,0.0686,0.0593,0.059,0.0557,0.0547,0.0537,0.0661,0.0661,0.066,0,0.001,0.0028,0.0108,0.0181,0.0275,0.0365,0.0472,0.0567,0.0608,0.057,0.0646,0.0534,0.0532,0.0486,0.0477,0.046,0,0,0,-0.0003,0.0033,0.0081,0.0165,0.0255,0.0384,0.0503,0.0525,0.0591,0.0656,0.0646,0.065,0.061,0.0595,0.0539,0.0528,0.0509,0,0]},{"header":{"parameterUnit":"m.s-1","parameterCategory":2,"la1":30.2992,"la2":30.254,"lo1":-89.0895,"lo2":-89.0443,"dy":0.0025,"dx":0.0025,"nx":19,"ny":19,"refTime":"2026-03-24T21:00:00:Z","depth":"4","parameterNumber":3,"parameterNumberName":"V-component_of_CURRENTS"},"data":[0,0,0,-0.0396,-0.0395,-0.0368,-0.0368,-0.0405,-0.0406,0,0,0,0,0,0,0,0,0,0,0,-0.041,-0.0409,-0.0396,-0.0395,-0.0368,-0.0368,-0.0405,-0.0406,0,0,0,0,0,0,0,0,0,0,0,-0.041,-0.0409,-0.0409,-0.0395,-0.0368,-0.0368,-0.0405,-0.0409,0,0,0,0,0,0,0,0,0,0,-0.0428,-0.0426,-0.0409,-0.0409,-0.0395,-0.0368,-0.0368,-0.0409,-0.0409,-0.0436,0,-0.0427,0,-0.0414,-0.0409,-0.0409,0,0,0,-0.0402,-0.0425,-0.0417,-0.0409,-0.0394,-0.0368,-0.0382,-0.0409,-0.0409,-0.0437,-0.0427,-0.0428,-0.0414,-0.0409,-0.041,-0.0418,-0.0417,0,0,-0.0404,-0.0408,-0.0417,-0.0417,-0.0383,-0.0383,-0.0381,-0.0408,-0.0409,-0.0427,-0.0428,-0.0415,-0.041,-0.041,-0.0418,-0.0417,0,0,0,-0.0403,-0.0409,-0.0399,-0.0417,-0.0404,-0.0382,-0.038,-0.0408,-0.0404,-0.0428,-0.0415,-0.041,-0.0411,-0.0418,-0.0418,-0.0353,0,0,0,-0.0404,-0.0408,-0.04,-0.0403,-0.0403,-0.0395,-0.0379,-0.0402,-0.0404,-0.0415,-0.041,-0.0411,-0.0419,-0.0418,-0.0355,-0.034,0,0,0,-0.0412,-0.0409,-0.0404,-0.0403,-0.0387,-0.0393,-0.0391,-0.0402,-0.0396,-0.0409,-0.0411,-0.0419,-0.0418,-0.0358,-0.0344,-0.0378,0,0,0,-0.042,-0.036,-0.0404,-0.0323,-0.0387,-0.0309,-0.0391,-0.0359,-0.036,-0.041,-0.0418,-0.0418,-0.0358,-0.0346,-0.0379,-0.0296,0,0,0,-0.0336,-0.0351,-0.0295,-0.0331,-0.0206,-0.0314,-0.0239,-0.0295,-0.0365,-0.0417,-0.0417,-0.0355,-0.0344,-0.0378,-0.0254,0,0,0,0,-0.026,-0.0209,-0.018,-0.0123,-0.0114,-0.0138,-0.0184,-0.0251,-0.0325,-0.0362,-0.0358,-0.0354,-0.0378,-0.0332,-0.0414,-0.0414,-0.0414,-0.0414,-0.0415,-0.0145,-0.0108,-0.0003,0.0039,0.0051,-0.0015,-0.0069,-0.0179,-0.0237,-0.028,-0.0303,-0.0287,-0.0233,-0.0299,-0.0299,-0.0299,-0.0299,-0.0298,-0.0298,0.0031,0.0092,0.0111,0.0215,0.0157,0.0152,0.0008,-0.0079,-0.0203,-0.0249,-0.0276,-0.0267,-0.0292,-0.0293,-0.0294,-0.0295,-0.0295,-0.0296,-0.0296,0.0134,0.0152,0.0211,0.0276,0.0254,0.0166,0.007,-0.005,-0.0163,-0.0191,-0.0205,-0.0269,-0.0277,-0.0227,-0.0227,-0.0227,-0.0227,-0.0227,-0.0227,0.016,0.0226,0.0234,0.0297,0.0261,0.019,0.0063,0.0006,-0.0099,-0.0139,-0.02,-0.0265,-0.0267,-0.0275,-0.0228,-0.0228,-0.0228,-0.0227,-0.0227,0.0212,0.0176,0.021,0.0195,0.0163,0.015,0.0081,0.0038,-0.0027,-0.0058,-0.0127,-0.0132,-0.0165,-0.0171,-0.0177,-0.0099,-0.0098,-0.0097,0,0.0144,0.0166,0.0114,0.0084,0.0083,0.0098,0.0094,0.0073,-0.0015,-0.0034,-0.0076,-0.0157,-0.0159,-0.02,-0.0203,-0.021,0,0,0,0.0062,0.0072,0.0009,0.0032,0.0038,0.0074,0.0092,0.0081,0.0004,0.0045,-0.0067,-0.0075,-0.0083,-0.023,-0.0295,-0.0298,-0.0315,0,0]}]]